sat.trackr.live / text

‹ back to catalog

STARLINK-3642

NORAD 51989 · 2022-025AK

PAYLOAD ACTIVE UNKNOWN

§ Identity

Operator
Country
US
Launch date
2022-03-09
Launch site
AFETR
Launch vehicle
Mass (kg)
RCS (m²)

Purposes: comms

External: N2YO · Heavens-Above · Gunter

§ Orbital elements

Epoch: 2026-05-25T03:38:56.719968Z

Period
95.44 min
Inclination
53.2144°
Eccentricity
0.0001494
Mean motion
15.08843690 rev/d
Perigee alt
538.7 km
Apogee alt
540.8 km
Semi-major
6,917.9 km
B*
-8.9258e-6
RAAN
55.8670°
Arg perigee
109.5656°
Mean anomaly
250.5498°
Rev number
23,260

§ Raw data

STARLINK-36421 51989U 22025AK  26145.15204537 -.00000430  00000+0 -89258-5 0  99932 51989  53.2144  55.8670 0001494 109.5656 250.5498 15.08843690232604

JSON: /api/v1/satellites/51989 · /tle

For live sub-satellite position, see the globe view (requires WebGL).

§ Visibility from observer

Set your observer location to see the next 7 days of passes ≥ 10°. The values pass through the URL so the page stays shareable.

No JS? Fill the form by hand. The geolocation button needs JavaScript.